Location: Владивосток
(43.1151°N, 131.8856°E)
Time: 02:36:06
(UTC+10:00)

FO-29 - Pass Details

Date: 03 May 2024
Orbit: 801 x 1320 km, 98.6° (Epoch: 19 May)

Event Time Altitude Azimuth Distance (km) Brightness Sun altitude
Rises 03:47:43 0° 9° (N) 4,289 13.8 -20.9°
Reaches altitude 10° 03:50:29 10° 5° (N) 3,341 13.0 -20.6°
Maximum altitude 03:58:01 53° 292° (WNW) 1,585 10.4 -19.6°
Enters shadow 04:02:02 28° 231° (SW) 2,215 10.7 -19.1°
